GW0552 Weather Reports


Display with metric or nautical units.
time (UTC)temp
F
wind
direction
speed
MPH
gust
MPH
rain 1hr
in
rain 24hr
in
rain mn
in
humidity
%
barometer
mb
20260902120328 69 121 0.0 0.0 0.00 0.00 0.00 99 1015.8
20260902115823 69 121 0.0 0.0 0.00 0.00 0.00 99 1016.0
20260902115319 69 121 0.0 0.0 0.00 0.00 0.00 99 1015.9
20260902114710 68 120 0.0 0.0 0.00 0.00 0.00 99 1015.7
20260902114206 68 120 0.0 0.0 0.00 0.00 0.00 99 1015.7
20260902113700 68 121 0.0 0.0 0.00 0.00 0.00 99 1015.7
20260902113155 68 120 0.0 0.0 0.00 0.00 0.00 99 1015.5
20260902112655 68 120 0.0 0.0 0.00 0.00 0.00 99 1015.5
20260902112153 68 121 0.0 0.0 0.00 0.00 0.00 99 1015.3
20260902111648 68 121 0.0 0.0 0.00 0.00 0.00 99 1015.3
20260902111143 68 123 0.0 0.0 0.00 0.00 0.00 99 1015.3
20260902110639 68 121 0.0 0.0 0.00 0.00 0.00 99 1015.1
20260902110135 68 122 0.0 0.0 0.00 0.00 0.00 99 1015.1
20260902105634 68 122 0.0 0.0 0.00 0.00 0.00 99 1015.2
20260902105130 68 121 0.0 0.0 0.00 0.00 0.00 99 1015.0
20260902104625 68 121 0.0 0.0 0.00 0.00 0.00 99 1015.3
20260902104120 69 120 0.0 0.0 0.00 0.00 0.00 99 1015.1
20260902103619 68 121 0.0 0.0 0.00 0.00 0.00 99 1015.3
20260902103115 68 121 0.0 0.0 0.00 0.00 0.00 99 1015.3
20260902102611 68 121 0.0 0.0 0.00 0.00 0.00 99 1015.2
20260902102108 68 122 0.0 0.0 0.00 0.00 0.00 99 1015.3
20260902101603 69 121 0.0 0.0 0.00 0.00 0.00 99 1015.3
20260902101102 68 121 0.0 0.0 0.00 0.00 0.00 99 1014.9
20260902100551 69 121 0.0 0.0 0.00 0.00 0.00 99 1015.1
20260902100046 69 122 0.0 0.0 0.00 0.00 0.00 99 1014.9
20260902095546 69 124 0.0 0.0 0.00 0.00 0.00 99 1015.1
20260902095045 69 122 0.0 0.0 0.00 0.00 0.00 99 1015.0
20260902094541 69 122 0.0 0.0 0.00 0.00 0.00 99 1015.0
20260902094036 69 123 0.0 0.0 0.00 0.00 0.00 99 1015.1
20260902093531 69 122 0.0 0.0 0.00 0.00 0.00 99 1015.0
20260902093031 69 122 0.0 0.0 0.00 0.00 0.00 99 1014.8
20260902092526 69 121 0.0 0.0 0.00 0.00 0.00 99 1015.0
20260902092021 69 122 0.0 0.0 0.00 0.00 0.00 99 1014.9
20260902091516 69 121 0.0 0.0 0.00 0.00 0.00 99 1015.1
20260902091012 69 121 0.0 0.0 0.00 0.00 0.00 99 1015.0
20260902090508 69 121 0.0 0.0 0.00 0.00 0.00 99 1015.0
20260902090006 69 121 0.0 0.0 0.00 0.00 0.00 99 1015.1
20260902085501 69 119 0.0 0.0 0.00 0.00 0.00 99 1015.1
20260902084956 69 121 0.0 0.0 0.00 0.00 0.00 99 1014.7
20260902084453 70 122 0.0 0.0 0.00 0.00 0.00 99 1014.6
20260902083948 70 121 0.0 0.0 0.00 0.00 0.00 99 1014.9
20260902083448 70 119 0.0 0.0 0.00 0.00 0.00 99 1014.7
20260902082943 70 122 0.0 0.0 0.00 0.00 0.00 99 1014.6
20260902082438 70 121 0.0 0.0 0.00 0.00 0.00 99 1014.6
20260902081935 70 124 0.0 0.0 0.00 0.00 0.00 99 1014.6
20260902081431 70 136 0.0 0.0 0.00 0.00 0.00 99 1014.6
20260902080926 70 123 0.0 0.0 0.00 0.00 0.00 99 1014.6
20260902080422 70 122 0.0 0.0 0.00 0.00 0.00 99 1014.8
20260902075921 70 121 0.0 0.0 0.00 0.00 0.00 99 1014.4
20260902075418 70 121 0.0 0.0 0.00 0.00 0.00 99 1014.6
20260902074913 70 121 0.0 0.0 0.00 0.00 0.00 99 1014.6
20260902074409 70 122 0.0 0.0 0.00 0.00 0.00 99 1014.6
20260902073903 70 121 0.0 0.0 0.00 0.00 0.00 99 1014.7
20260902073400 70 119 0.0 0.0 0.00 0.00 0.00 99 1014.5
20260902072855 70 121 0.0 0.0 0.00 0.00 0.00 99 1014.6
20260902072351 70 121 0.0 0.0 0.00 0.00 0.00 99 1014.5
20260902071847 70 121 0.0 0.0 0.00 0.00 0.00 99 1014.5
20260902071347 70 121 0.0 0.0 0.00 0.00 0.00 99 1014.4
20260902070843 71 121 0.0 0.0 0.00 0.00 0.00 99 1014.5
20260902070338 71 128 0.0 0.0 0.00 0.00 0.00 99 1014.6
20260902065836 71 122 0.0 0.0 0.00 0.00 0.00 99 1014.5
20260902065332 71 121 0.0 0.0 0.00 0.00 0.00 99 1014.4
20260902064827 71 120 0.0 0.0 0.00 0.00 0.00 99 1014.3
20260902064324 71 125 0.0 0.0 0.00 0.00 0.00 99 1014.3
20260902063819 71 123 0.0 0.0 0.00 0.00 0.00 99 1014.2
20260902063319 71 121 0.0 0.0 0.00 0.00 0.00 99 1014.4
20260902062818 71 121 0.0 0.0 0.00 0.00 0.00 99 1014.4
20260902062249 71 122 0.0 0.0 0.00 0.00 0.00 99 1014.4
20260902061748 71 122 0.0 0.0 0.00 0.00 0.00 99 1014.4
20260902061238 71 122 0.0 0.0 0.00 0.00 0.00 99 1014.4
20260902060735 71 122 0.0 0.0 0.00 0.00 0.00 99 1014.4
20260902060231 71 122 0.0 0.0 0.00 0.00 0.00 99 1014.6
20260902055726 71 122 0.0 0.0 0.00 0.00 0.00 99 1014.4
20260902055222 72 120 0.0 0.0 0.00 0.00 0.00 99 1014.3
20260902054717 72 120 0.0 0.0 0.00 0.00 0.00 99 1014.3
20260902054213 72 120 0.0 0.0 0.00 0.00 0.00 99 1014.2
20260902053708 72 120 0.0 0.0 0.00 0.00 0.00 99 1014.2
20260902053207 72 121 0.0 0.0 0.00 0.00 0.00 99 1014.2
20260902052707 72 128 0.0 0.0 0.00 0.00 0.00 99 1014.3
20260902052202 72 128 0.0 0.0 0.00 0.00 0.00 99 1014.1
20260902051701 72 124 0.0 0.0 0.00 0.00 0.00 99 1014.2
20260902051157 72 126 0.0 0.0 0.00 0.00 0.00 99 1014.3
20260902050657 72 127 1.0 1.0 0.00 0.00 0.00 99 1014.0
20260902050152 72 124 1.0 1.0 0.00 0.00 0.00 99 1014.2
20260902045647 72 123 1.0 1.0 0.00 0.00 0.00 99 1014.2
20260902045143 72 122 0.0 0.0 0.00 0.00 0.00 99 1014.3
20260902044638 72 124 0.0 0.0 0.00 0.00 0.00 99 1014.3
20260902044134 72 124 0.0 0.0 0.00 0.00 0.00 99 1014.4
20260902043629 73 123 0.0 0.0 0.00 0.00 0.00 99 1014.5
20260902043124 73 123 0.0 0.0 0.00 0.00 0.00 99 1014.2
20260902042623 73 122 0.0 0.0 0.00 0.00 0.00 99 1014.4
20260902042119 73 123 0.0 0.0 0.00 0.00 0.00 99 1014.1
20260902041618 73 122 0.0 0.0 0.00 0.00 0.00 99 1014.0
20260902041113 73 123 0.0 0.0 0.00 0.00 0.00 99 1014.1
20260902040608 73 123 0.0 0.0 0.00 0.00 0.00 99 1014.1
20260902040103 73 124 0.0 0.0 0.00 0.00 0.00 99 1014.0
20260902035601 73 124 0.0 0.0 0.00 0.00 0.00 99 1014.0
20260902035057 73 123 0.0 0.0 0.00 0.00 0.00 99 1014.2
20260902034555 73 125 0.0 0.0 0.00 0.00 0.00 99 1014.0
20260902034054 73 123 0.0 0.0 0.00 0.00 0.00 99 1014.0
20260902033554 74 122 0.0 0.0 0.00 0.00 0.00 99 1014.2
20260902033049 74 122 0.0 0.0 0.00 0.00 0.00 99 1014.3
20260902032547 74 122 0.0 0.0 0.00 0.00 0.00 99 1014.3
20260902032043 74 121 0.0 0.0 0.00 0.00 0.00 99 1013.9
20260902031537 74 121 0.0 0.0 0.00 0.00 0.00 99 1014.3
20260902031034 74 122 0.0 0.0 0.00 0.00 0.00 99 1014.1
20260902030534 74 125 0.0 0.0 0.00 0.00 0.00 99 1014.2
20260902030034 74 122 0.0 0.0 0.00 0.00 0.00 99 1014.2
20260902025529 74 122 0.0 0.0 0.00 0.00 0.00 99 1014.0
20260902025024 74 122 0.0 0.0 0.00 0.00 0.00 99 1014.0
20260902024520 75 122 0.0 0.0 0.00 0.00 0.00 99 1014.1
20260902024020 75 124 0.0 0.0 0.00 0.00 0.00 99 1014.3
20260902023516 75 121 0.0 0.0 0.00 0.00 0.00 99 1014.2
20260902023016 75 120 0.0 0.0 0.00 0.00 0.00 99 1014.3
20260902022510 75 121 0.0 0.0 0.00 0.00 0.00 99 1014.4
20260902022006 75 118 1.0 2.0 0.00 0.00 0.00 99 1014.0
20260902021501 75 125 2.0 2.0 0.00 0.00 0.00 99 1013.9
20260902020956 75 130 2.0 3.0 0.00 0.00 0.00 99 1014.1
20260902020452 75 129 2.0 3.0 0.00 0.00 0.00 99 1014.0
20260902015948 75 127 1.0 2.0 0.00 0.00 0.00 99 1014.0
20260902015443 75 130 1.0 1.0 0.00 0.00 0.00 99 1014.2
20260902014938 76 131 1.0 1.0 0.00 0.00 0.00 99 1014.1
20260902014435 76 128 2.0 2.0 0.00 0.00 0.00 99 1013.9
20260902013934 76 127 2.0 2.0 0.00 0.00 0.00 99 1013.9
20260902013430 76 128 0.0 1.0 0.00 0.00 0.00 98 1013.6
20260902012925 76 123 0.0 0.0 0.00 0.00 0.00 98 1014.1
20260902012420 76 124 1.0 1.0 0.00 0.00 0.00 98 1013.9
20260902011916 76 124 1.0 1.0 0.00 0.00 0.00 98 1013.7
20260902011411 77 123 1.0 1.0 0.00 0.00 0.00 98 1013.8
20260902010910 77 128 0.0 0.0 0.00 0.00 0.00 97 1013.6
20260902010405 77 122 0.0 0.0 0.00 0.00 0.00 97 1013.8
20260902005905 77 124 1.0 1.0 0.00 0.00 0.00 97 1013.4
20260902005359 77 124 1.0 1.0 0.00 0.00 0.00 97 1013.6
20260902004855 77 124 1.0 1.0 0.00 0.00 0.00 96 1013.4
20260902004354 78 128 0.0 0.0 0.00 0.00 0.00 96 1013.3
20260902003849 78 126 0.0 0.0 0.00 0.00 0.00 95 1013.4
20260902003344 78 125 0.0 0.0 0.00 0.00 0.00 95 1013.4
20260902002840 78 124 0.0 0.0 0.00 0.00 0.00 94 1013.3
20260902002339 79 123 0.0 0.0 0.00 0.00 0.00 94 1013.6
20260902001834 79 123 0.0 0.0 0.00 0.00 0.00 93 1013.4
20260902001329 79 123 0.0 0.0 0.00 0.00 0.00 92 1013.4
20260902000824 79 123 1.0 1.0 0.00 0.00 0.00 93 1013.5
20260902000324 80 127 1.0 1.0 0.00 0.00 0.00 92 1013.3
20260901235820 80 125 1.0 2.0 0.00 0.00 0.00 91 1013.2
20260901235319 80 126 1.0 2.0 0.00 0.00 0.00 91 1013.3
20260901234814 80 127 1.0 1.0 0.00 0.00 0.00 89 1013.4
20260901234308 81 127 1.0 1.0 0.00 0.00 0.00 88 1013.3
20260901233804 81 127 1.0 1.0 0.00 0.00 0.00 88 1013.3
20260901233259 82 126 1.0 1.0 0.00 0.00 0.00 86 1013.1
20260901232754 82 126 1.0 1.0 0.00 0.00 0.00 86 1013.1
20260901232243 82 125 1.0 1.0 0.00 0.00 0.00 85 1013.2
20260901231740 83 126 0.0 0.0 0.00 0.00 0.00 84 1013.1
20260901231236 83 125 0.0 0.0 0.00 0.00 0.00 83 1013.0
20260901230731 83 125 0.0 1.0 0.00 0.00 0.00 81 1013.4
20260901230225 84 127 1.0 1.0 0.00 0.00 0.00 80 1013.3
20260901225720 84 127 1.0 1.0 0.00 0.00 0.00 78 1013.1
20260901225214 85 127 1.0 1.0 0.00 0.00 0.00 78 1013.2
20260901224711 86 126 1.0 2.0 0.00 0.00 0.00 76 1013.3
20260901224207 87 126 1.0 1.0 0.00 0.00 0.00 74 1013.3
20260901223702 87 125 3.0 5.0 0.00 0.00 0.00 73 1013.3
20260901223157 88 126 1.0 1.0 0.00 0.00 0.00 73 1013.2
20260901222653 88 125 2.0 2.0 0.00 0.00 0.00 71 1013.3
20260901222149 88 126 1.0 1.0 0.00 0.00 0.00 71 1013.2
20260901221645 90 131 2.0 2.0 0.00 0.00 0.00 71 1013.5
20260901221140 91 131 1.0 1.0 0.00 0.00 0.00 69 1013.3
20260901220639 92 130 1.0 1.0 0.00 0.00 0.00 68 1013.1
20260901220139 94 128 0.0 0.0 0.00 0.00 0.00 66 1013.3
20260901215637 93 127 0.0 0.0 0.00 0.00 0.00 64 1013.3
20260901215132 92 131 1.0 1.0 0.00 0.00 0.00 65 1013.4
20260901214631 92 126 0.0 0.0 0.00 0.00 0.00 67 1013.4
20260901214130 93 125 0.0 0.0 0.00 0.00 0.00 68 1013.6
20260901213625 92 131 0.0 0.0 0.00 0.00 0.00 65 1013.7
20260901213120 91 130 1.0 1.0 0.00 0.00 0.00 68 1013.8
20260901212619 89 132 0.0 0.0 0.00 0.00 0.00 70 1013.4
20260901212116 88 133 0.0 0.0 0.00 0.00 0.00 76 1013.6
20260901211610 88 129 0.0 0.0 0.00 0.00 0.00 77 1013.8
20260901211107 89 132 0.0 0.0 0.00 0.00 0.00 76 1013.8
20260901210602 90 132 0.0 0.0 0.00 0.00 0.00 75 1013.9
20260901210058 88 130 0.0 0.0 0.00 0.00 0.00 77 1013.9
20260901205553 88 130 0.0 0.0 0.00 0.00 0.00 75 1014.2
20260901205047 89 130 1.0 1.0 0.00 0.00 0.00 74 1013.7
20260901204544 88 130 1.0 1.0 0.00 0.00 0.00 74 1013.9
20260901204039 89 129 1.0 1.0 0.00 0.00 0.00 73 1014.2
20260901203539 88 128 0.0 0.0 0.00 0.00 0.00 74 1014.1
20260901203034 88 128 0.0 0.0 0.00 0.00 0.00 72 1014.1
20260901202529 90 128 0.0 0.0 0.00 0.00 0.00 72 1014.0
20260901202025 91 128 0.0 0.0 0.00 0.00 0.00 69 1014.1
20260901201520 92 128 0.0 0.0 0.00 0.00 0.00 68 1014.1
20260901201014 93 129 0.0 0.0 0.00 0.00 0.00 61 1014.3
20260901200509 93 128 0.0 0.0 0.00 0.00 0.00 60 1014.2
20260901200008 92 113 1.0 1.0 0.00 0.00 0.00 60 1014.4
20260901195506 92 118 2.0 2.0 0.00 0.00 0.00 61 1014.3
20260901195006 90 122 0.0 0.0 0.00 0.00 0.00 69 1014.4
20260901194501 91 108 1.0 1.0 0.00 0.00 0.00 65 1014.3
20260901193957 91 127 0.0 0.0 0.00 0.00 0.00 63 1014.5
20260901193456 91 124 1.0 1.0 0.00 0.00 0.00 64 1014.4
20260901192956 92 132 2.0 3.0 0.00 0.00 0.00 63 1014.4
20260901192452 92 122 0.0 0.0 0.00 0.00 0.00 63 1014.4
20260901191948 93 114 0.0 1.0 0.00 0.00 0.00 62 1014.6
20260901191446 93 109 2.0 2.0 0.00 0.00 0.00 61 1014.6
20260901190939 93 117 0.0 0.0 0.00 0.00 0.00 60 1014.6
20260901190434 93 117 5.0 6.0 0.00 0.00 0.00 59 1014.7
20260901185932 93 130 3.0 5.0 0.00 0.00 0.00 61 1014.7
20260901185432 92 112 0.0 1.0 0.00 0.00 0.00 62 1014.8
20260901184926 92 112 0.0 0.0 0.00 0.00 0.00 61 1014.7
20260901184421 92 121 0.0 1.0 0.00 0.00 0.00 61 1014.6
20260901183917 92 128 1.0 2.0 0.00 0.00 0.00 60 1015.0
20260901183416 94 125 0.0 0.0 0.00 0.00 0.00 52 1014.8
20260901182912 94 122 0.0 0.0 0.00 0.00 0.00 58 1014.9
20260901182407 92 120 0.0 0.0 0.00 0.00 0.00 57 1015.0
20260901181902 92 119 0.0 0.0 0.00 0.00 0.00 56 1015.1
20260901181357 93 109 3.0 3.0 0.00 0.00 0.00 56 1014.9
20260901180856 94 113 0.0 0.0 0.00 0.00 0.00 54 1015.1
20260901180355 94 99 0.0 0.0 0.00 0.00 0.00 56 1015.1
20260901175853 93 331 2.0 5.0 0.00 0.00 0.00 57 1015.1
20260901175348 94 259 3.0 5.0 0.00 0.00 0.00 55 1015.3
20260901174844 93 81 2.0 2.0 0.00 0.00 0.00 55 1015.2
20260901174339 93 150 3.0 6.0 0.00 0.00 0.00 53 1015.4
20260901173835 93 134 3.0 3.0 0.00 0.00 0.00 57 1015.4
20260901173329 92 336 4.0 5.0 0.00 0.00 0.00 58 1015.8
20260901172826 91 131 2.0 2.0 0.00 0.00 0.00 63 1015.7
20260901172325 90 111 0.0 0.0 0.00 0.00 0.00 65 1015.8
20260901171823 91 115 0.0 1.0 0.00 0.00 0.00 65 1015.9
20260901171323 91 82 2.0 2.0 0.00 0.00 0.00 63 1015.8
20260901170822 92 80 3.0 5.0 0.00 0.00 0.00 63 1015.9
20260901170317 92 124 0.0 1.0 0.00 0.00 0.00 65 1016.0
20260901165816 91 117 1.0 1.0 0.00 0.00 0.00 64 1015.9
20260901165310 92 121 2.0 3.0 0.00 0.00 0.00 63 1015.9
20260901164807 91 134 2.0 2.0 0.00 0.00 0.00 66 1015.8
20260901164302 91 118 4.0 5.0 0.00 0.00 0.00 65 1016.1
20260901163757 91 132 3.0 5.0 0.00 0.00 0.00 68 1015.7
20260901163257 92 117 7.0 7.0 0.00 0.00 0.00 67 1015.8
20260901162752 91 122 0.0 0.0 0.00 0.00 0.00 67 1015.8
20260901162251 90 117 2.0 3.0 0.00 0.00 0.00 67 1015.9
20260901161750 91 120 4.0 5.0 0.00 0.00 0.00 68 1015.8
20260901161244 90 116 2.0 2.0 0.00 0.00 0.00 68 1016.0
20260901160741 89 103 2.0 2.0 0.00 0.00 0.00 69 1015.9
20260901160236 89 129 3.0 3.0 0.00 0.00 0.00 71 1015.8
20260901155735 89 128 2.0 2.0 0.00 0.00 0.00 72 1016.0
20260901155230 89 118 3.0 3.0 0.00 0.00 0.00 71 1015.9
20260901154725 89 135 1.0 1.0 0.00 0.00 0.00 73 1016.1
20260901154220 88 117 1.0 1.0 0.00 0.00 0.00 76 1015.9
20260901153716 88 110 2.0 2.0 0.00 0.00 0.00 73 1015.9
20260901153209 88 145 1.0 3.0 0.00 0.00 0.00 74 1016.1
20260901152704 88 148 3.0 3.0 0.00 0.00 0.00 73 1016.1
20260901152203 87 120 1.0 1.0 0.00 0.00 0.00 75 1016.3
20260901151659 87 127 3.0 5.0 0.00 0.00 0.00 75 1016.0
20260901151158 88 115 5.0 7.0 0.00 0.00 0.00 72 1016.3
20260901150657 87 118 4.0 5.0 0.00 0.00 0.00 73 1016.0
20260901150155 86 118 1.0 1.0 0.00 0.00 0.00 78 1016.1
20260901145654 86 119 0.0 0.0 0.00 0.00 0.00 82 1016.2
20260901145154 86 130 1.0 2.0 0.00 0.00 0.00 80 1016.1
20260901144649 86 126 0.0 0.0 0.00 0.00 0.00 82 1016.1
20260901144144 85 122 0.0 0.0 0.00 0.00 0.00 81 1016.2
20260901143639 85 107 0.0 0.0 0.00 0.00 0.00 83 1016.4
20260901143136 85 104 1.0 2.0 0.00 0.00 0.00 85 1016.3
20260901142632 84 122 0.0 0.0 0.00 0.00 0.00 90 1016.2
20260901142131 83 117 0.0 1.0 0.00 0.00 0.00 89 1016.2
20260901141626 83 110 0.0 0.0 0.00 0.00 0.00 91 1016.3
20260901141120 83 114 1.0 1.0 0.00 0.00 0.00 90 1016.1
20260901140619 82 114 3.0 3.0 0.00 0.00 0.00 86 1016.2
20260901140118 81 119 4.0 6.0 0.00 0.00 0.00 87 1016.1
20260901135618 81 109 0.0 0.0 0.00 0.00 0.00 95 1016.2
20260901135113 80 117 1.0 1.0 0.00 0.00 0.00 96 1016.2
20260901134610 79 112 1.0 1.0 0.00 0.00 0.00 96 1016.3
20260901134104 79 110 1.0 2.0 0.00 0.00 0.00 97 1016.2
20260901133603 78 112 1.0 1.0 0.00 0.00 0.00 97 1016.1
20260901133102 77 97 1.0 2.0 0.00 0.00 0.00 99 1016.1
20260901132556 77 117 0.0 0.0 0.00 0.00 0.00 99 1016.3
20260901132051 77 115 0.0 0.0 0.00 0.00 0.00 99 1016.3
20260901131551 76 115 0.0 0.0 0.00 0.00 0.00 99 1016.3
20260901131045 75 114 0.0 0.0 0.00 0.00 0.00 99 1016.2
20260901130540 74 114 0.0 0.0 0.00 0.00 0.00 99 1016.3
20260901130039 74 116 0.0 0.0 0.00 0.00 0.00 99 1016.2
20260901125537 73 117 0.0 0.0 0.00 0.00 0.00 99 1016.1
20260901125033 73 121 0.0 0.0 0.00 0.00 0.00 99 1016.1
20260901124532 73 123 0.0 0.0 0.00 0.00 0.00 99 1016.4
20260901124027 72 122 0.0 0.0 0.00 0.00 0.00 99 1016.4
20260901123522 72 122 0.0 0.0 0.00 0.00 0.00 99 1016.3
20260901123021 71 123 0.0 0.0 0.00 0.00 0.00 99 1016.2
20260901122520 71 124 0.0 0.0 0.00 0.00 0.00 99 1016.5
20260901122014 71 124 0.0 0.0 0.00 0.00 0.00 99 1016.6
20260901121509 70 123 0.0 0.0 0.00 0.00 0.00 99 1016.1
20260901121004 70 122 0.0 0.0 0.00 0.00 0.00 99 1016.4